Regional Weather Roundup
Issued by NWS Glasgow, MT

Home | Current Version | Previous Version | Text Only | Print | Product List | Glossary On
Versions: 1 2 3 4 5 6 7 8 9 10 11 12 13 14 15 16 17 18 19 20 21 22 23 24 25 26 27 28 29 30 31 32 33 34 35 36 37 38 39 40 41 42 43 44 45 46 47 48 49 50
000
ASUS45 KGGW 242015
RWRGGW
HOURLY REGIONAL WEATHER ROUNDUP FOR NORTHEAST MONTANA
NATIONAL WEATHER SERVICE GLASGOW MONTANA
100 PM MST TUE JAN 24 2017

NOTE: "FAIR" INDICATES FEW OR NO CLOUDS BELOW 12,000 FEET WITH NO
SIGNIFICANT WEATHER AND/OR OBSTRUCTIONS TO VISISBILITY.

NORTHEAST MONTANA


CITY           SKY/WX    TMP DP  RH WIND       PRES   REMARKS
GLASGOW        FLURRIES  19  14  81 NW13      29.91F
PLENTYWOOD       N/A     17  12  80 NW8         N/A
WOLF POINT     CLOUDY    23  17  78 W7        29.92F
JORDAN           N/A     24  18  77 NW12      29.89F
WINNETT          N/A     27  18  69 NW10        N/A
SIDNEY         FLURRIES  23  15  71 NW10      29.92F
GLENDIVE       FLURRIES  22  16  78 W5        29.90F
MALTA            N/A     22  16  78 W6          N/A
SCOBEY           N/A     16   7  67 W9        29.87F

FORT PECK REPORTS


CITY           SKY/WX    TMP DP  RH WIND       PRES   REMARKS
FORT PECK        N/A     22  19  89 NW7G15      N/A
THE PINES        N/A     24  18  77 CALM        N/A

SOUTHEAST MONTANA


CITY           SKY/WX    TMP DP  RH WIND       PRES   REMARKS
BILLINGS       FLURRIES  21  18  88 SW5       29.87F
MILES CITY     CLOUDY    22  15  75 W12       29.90F
BAKER          FLURRIES  19  15  84 NW10      29.86F
LIVINGSTON     CLOUDY    22  10  60 NW8       29.84F

CENTRAL MONTANA


CITY           SKY/WX    TMP DP  RH WIND       PRES   REMARKS
HAVRE          CLOUDY    21  16  81 NW8       29.93S
LEWISTOWN      MOSUNNY   22  14  71 W7        29.84F
GREAT FALLS    SUNNY     24  16  71 SW8       29.88F
CUT BANK       CLOUDY    26  16  65 NW8       29.87F
HELENA         SUNNY     15   6  67 CALM      29.91F
BUTTE          SUNNY     17   8  67 CALM      29.83F
BOZEMAN        MOSUNNY   16  10  77 SE5       29.88F

WESTERN MONTANA


CITY           SKY/WX    TMP DP  RH WIND       PRES   REMARKS
MISSOULA       CLOUDY    23  15  71 S3        29.98S
KALISPELL      NOT AVBL

NORTH DAKOTA


CITY           SKY/WX    TMP DP  RH WIND       PRES   REMARKS
WILLISTON      CLOUDY    20  13  74 NW8       29.91S
DICKINSON      CLOUDY    21  16  81 NW14      29.81F
MINOT          CLOUDY    23  17  78 NW16      29.85F
BISMARCK       CLOUDY    26  18  71 NW13      29.87F

SOUTHERN SASKATCHEWAN


CITY           SKY/WX    TMP DP  RH WIND       PRES   REMARKS
REGINA         FLURRIES  18  12  79 NW12      29.90F
MOOSE JAW      LGT SNOW  18  14  86 NW12      29.93F DRFTSNOW
ESTEVAN        FLURRIES  18  14  86 NW15      29.88F
SWIFT CURRENT  FLURRIES  12   9  85 NW14      29.88S WCI  -3




USA.gov is the U.S. government's official web portal to all federal, state and local government web resources and services.